Weather History for Luxor, Egypt

Change the Weather History Date:

Monday, October 15, 2012

  Actual Average Record
Temperature  
Mean Temperature 86 °F -  
Max Temperature 100 °F 86 °F 104 °F (1998)
Min Temperature 72 °F 60 °F 62 °F (1996)
Cooling Degree Days 21    
Growing Degree Days 36 (Base 50)    
Moisture  
Dew Point 61 °F    
Average Humidity 42    
Maximum Humidity 64    
Minimum Humidity 17    
Precipitation  
Precipitation 0.00 in 0.00 in - ()
Sea Level Pressure  
Sea Level Pressure 29.86 in    
Wind  
Wind Speed 1 mph ()    
Max Wind Speed 5 mph    
Max Gust Speed -    
Visibility 5.0 miles    
Events      
Averages and records for this station are not official NWS values.
T = Trace of Precipitation, MM = Missing Value Source: Averaged Metar Reports

Daily Weather History Graph

Daily Weather History Graph

Search for Another Location

Airport:

Trip Planner

Search our weather history database for the weather conditions in past years. The results will help you decide how hot, cold, wet, or windy it might be!

Date:

Astronomy

Oct. 15, 2012 Rise Set
Actual Time 5:47 AM EET 5:21 PM EET
Civil Twilight 5:24 AM EET 5:44 PM EET
Nautical Twilight 4:58 AM EET 6:11 PM EET
Astronomical Twilight 4:31 AM EET 6:37 PM EET
Moon 5:30 AM EET (10/15) 5:13 PM EET (10/15)
Length of Visible Light 12h 19m
Length of Day
11h 33m
Waning Crescent, 0% of the Moon is Illuminated
Oct 15
Waning Crescent
Oct 15
New
Oct 22
First Quarter
Oct 29
Full
Nov 7
Last Quarter

Hourly Weather History & Observations

Time (EET) Temp. Heat Index Dew Point Humidity Pressure Visibility Wind Dir Wind Speed Gust Speed Precip Events Conditions
12:00 AM 78.8 °F - 59.0 °F 51% 29.86 in - Calm Calm - N/A   Clear
1:00 AM 78.8 °F - 62.6 °F 57% 29.83 in - Calm Calm - N/A   Clear
2:00 AM 78 °F - 58 °F 40% 29.83 in 6 mi SSE 2.3 mph - -  
2:00 AM 77.0 °F - 59.0 °F 54% 29.83 in - SSE 2.3 mph - N/A   Clear
3:00 AM 78.8 °F - 60.8 °F 54% 29.83 in - Calm Calm - N/A   Clear
4:00 AM 77.0 °F - 60.8 °F 57% 29.83 in - Calm Calm - N/A   Clear
5:00 AM 75.2 °F - 55.4 °F 50% 29.86 in - NE 2.3 mph - N/A   Clear
6:00 AM 71.6 °F - 59.0 °F 64% 29.89 in - Calm Calm - N/A   Clear
7:00 AM 77.0 °F - 60.8 °F 57% 29.89 in - North 2.3 mph - N/A   Clear
8:00 AM 80 °F - 63 °F 46% 29.92 in 6 mi NE 2.3 mph - -  
8:00 AM 80.6 °F 81.8 °F 62.6 °F 54% 29.92 in - NE 2.3 mph - N/A   Clear
9:00 AM 84.2 °F 85.0 °F 62.6 °F 48% 29.92 in - ENE 2.3 mph - N/A   Clear
10:00 AM 89.6 °F 91.1 °F 64.4 °F 43% 29.92 in 5.0 mi Calm Calm - N/A   Unknown
11:00 AM 93.2 °F 93.3 °F 60.8 °F 34% 29.92 in - NW 1.2 mph - N/A   Clear
12:00 PM 96.8 °F 99.0 °F 64.4 °F 34% 29.89 in - NNW 2.3 mph - N/A   Clear
1:00 PM 100.4 °F 103.6 °F 64.4 °F 31% 29.83 in - North 3.5 mph - N/A   Clear
2:00 PM 100 °F - 65 °F 23% 29.82 in 2 mi North 3.5 mph - -  
2:00 PM 100.4 °F 103.6 °F 64.4 °F 31% 29.83 in - North 3.5 mph - N/A   Clear
3:00 PM 100.4 °F 103.6 °F 64.4 °F 31% 29.83 in - NNW 3.5 mph - N/A   Clear
4:00 PM 98.6 °F 101.0 °F 64.4 °F 32% 29.80 in - NNW 3.5 mph - N/A   Clear
5:00 PM 96.8 °F 98.0 °F 62.6 °F 32% 29.80 in - North 3.5 mph - N/A   Clear
6:00 PM 93.2 °F 94.9 °F 64.4 °F 38% 29.83 in - WSW 2.3 mph - N/A   Clear
7:00 PM 91.4 °F 93.2 °F 64.4 °F 41% 29.83 in - Calm Calm - N/A   Clear
8:00 PM 91 °F - 58 °F 23% 29.85 in 6 mi ESE 4.6 mph - -  
8:00 PM 91.4 °F - 41.0 °F 17% 29.83 in - ESE 4.6 mph - N/A   Clear
9:00 PM 89.6 °F 88.1 °F 57.2 °F 33% 29.89 in - Calm Calm - N/A   Clear
10:00 PM 84.2 °F 84.4 °F 60.8 °F 45% 29.89 in - NNW 3.5 mph - N/A   Clear
11:00 PM 84.2 °F 85.0 °F 62.6 °F 48% 29.89 in - North 3.5 mph - N/A   Clear